This is the latest recevied weather packets stored in our database for station/object DB0WUN-13. If no packets are shown the sender has not sent any weather packets the latest 10 day(s).
| Time | Temp. | Humidity | Pressure | Rain* | Wind** | Luminosity | Snow |
|---|---|---|---|---|---|---|---|
| 1777127921 | 17.78° C | 25% | 1015.6 hPa | 0 mm | - | 563 W/m² | - |
| 1777127859 | 17.78° C | 24% | 1015.6 hPa | 0 mm | - | 564 W/m² | - |
| 1777127805 | 17.78° C | 25% | 1015.7 hPa | 0 mm | - | 564 W/m² | - |
| 1777127741 | 17.78° C | 24% | 1015.7 hPa | 0 mm | - | 570 W/m² | - |
| 1777127681 | 18.33° C | 24% | 1015.7 hPa | 0 mm | - | 570 W/m² | - |
| 1777127621 | 18.33° C | 24% | 1015.6 hPa | 0 mm | - | 570 W/m² | - |
| 1777127562 | 18.33° C | 24% | 1015.7 hPa | 0 mm | - | 575 W/m² | - |
| 1777127506 | 18.33° C | 26% | 1015.7 hPa | 0 mm | - | 582 W/m² | - |
| 1777127443 | 18.33° C | 26% | 1015.6 hPa | 0 mm | - | 584 W/m² | - |
| 1777127377 | 18.33° C | 25% | 1015.6 hPa | 0 mm | - | 582 W/m² | - |
| 1777127319 | 17.78° C | 25% | 1015.6 hPa | 0 mm | - | 585 W/m² | - |
| 1777127258 | 17.78° C | 25% | 1015.5 hPa | 0 mm | - | 587 W/m² | - |
| 1777127206 | 17.78° C | 25% | 1015.6 hPa | 0 mm | - | 589 W/m² | - |
| 1777127136 | 17.78° C | 26% | 1015.6 hPa | 0 mm | - | 591 W/m² | - |
| 1777127078 | 17.78° C | 26% | 1015.6 hPa | 0 mm | - | 598 W/m² | - |
| 1777127045 | 17.78° C | 26% | 1015.7 hPa | 0 mm | - | 598 W/m² | - |
| 1777127009 | 17.78° C | 25% | 1015.8 hPa | 0 mm | - | 599 W/m² | - |
| 1777126969 | 17.78° C | 26% | 1015.7 hPa | 0 mm | - | 603 W/m² | - |
| 1777126928 | 17.78° C | 26% | 1015.7 hPa | 0 mm | - | 606 W/m² | - |
| 1777126878 | 17.78° C | 25% | 1015.6 hPa | 0 mm | - | 606 W/m² | - |
| 1777126845 | 17.78° C | 25% | 1015.6 hPa | 0 mm | - | 613 W/m² | - |
| 1777126677 | 17.78° C | 25% | 1015.8 hPa | 0 mm | - | 613 W/m² | - |
| 1777126638 | 17.78° C | 25% | 1015.8 hPa | 0 mm | - | 617 W/m² | - |
| 1777126593 | 17.78° C | 25% | 1015.8 hPa | 0 mm | - | 608 W/m² | - |
| 1777126549 | 17.78° C | 25% | 1015.8 hPa | 0 mm | - | 613 W/m² | - |
* Rain latest hour (hover to see other rain measurements)
** Current wind speed in m/s (hover to see current wind gust speed)